Weather History for RJEC - March, 2014

Change the Weather History Date:

Monday, March 10, 2014

  Actual Average Record
Temperature  
Mean Temperature 22 °F -  
Max Temperature 28 °F 37 °F 46 °F (2008)
Min Temperature 15 °F 24 °F -5 °F (2001)
Degree Days  
Heating Degree Days 44    
Moisture  
Dew Point 16 °F    
Average Humidity 79    
Maximum Humidity 100    
Minimum Humidity 59    
Precipitation  
Precipitation 0.00 in - - ()
Sea Level Pressure  
Sea Level Pressure 29.68 in    
Wind  
Wind Speed 6 mph ()    
Max Wind Speed 17 mph    
Max Gust Speed -    
Visibility 5.5 miles    
Events Snow    
Averages and records for this station are not official NWS values.
T = Trace of Precipitation, MM = Missing Value Source: Averaged Metar Reports

Daily Weather History Graph

Daily Weather History Graph

Search for Another Location

Airport or City:

Trip Planner

Search our weather history database for the weather conditions in past years. The results will help you decide how hot, cold, wet, or windy it might be!

Date:

Astronomy

Mar. 10, 2014 Rise Set
Actual Time 5:52 AM JST 5:29 PM JST
Civil Twilight 5:23 AM JST 5:58 PM JST
Nautical Twilight 4:50 AM JST 6:31 PM JST
Astronomical Twilight 4:17 AM JST 7:05 PM JST
Moon 11:32 AM JST (3/10) 1:42 AM JST (3/10)
Length of Visible Light 12h 34m
Length of Day
11h 37m
Waxing Gibbous, 65% of the Moon is Illuminated
Mar 10
Waxing Gibbous
Mar 17
Full
Mar 24
Last Quarter
Mar 31
New
Apr 7
First Quarter

Hourly Weather History & Observations

Time (JST) Temp. Windchill Dew Point Humidity Pressure Visibility Wind Dir Wind Speed Gust Speed Precip Events Conditions
6:42 AM 19.4 °F 14.3 °F 15.8 °F 86% 29.65 in - South 3.5 mph - N/A Snow Light Snow Showers
7:00 AM 19.4 °F - 17.6 °F 93% 29.65 in 1.6 mi Variable 2.3 mph - N/A Snow Light Snow Showers
7:07 AM 19.4 °F - 15.8 °F 86% 29.65 in - Variable 2.3 mph - N/A Snow Light Snow Showers
7:16 AM 19.4 °F - 17.6 °F 93% 29.65 in 3.1 mi Variable 1.2 mph - N/A Snow Light Snow Showers
8:00 AM 19.4 °F - 19.4 °F 100% 29.65 in 3.7 mi Calm Calm - N/A Snow Light Snow Showers
8:47 AM 19.4 °F 14.3 °F 17.6 °F 93% 29.65 in 5.0 mi NW 3.5 mph - N/A Snow Light Snow Showers
9:00 AM 21.2 °F 16.4 °F 17.6 °F 86% 29.65 in 5.0 mi NW 3.5 mph - N/A Snow Light Snow Showers
9:17 AM 21.2 °F - 19.4 °F 93% 29.65 in 6.2 mi NW 2.3 mph - N/A Snow Light Snow Showers
10:00 AM 24.8 °F 15.3 °F 19.4 °F 80% 29.65 in 6.2 mi NNW 9.2 mph - N/A   Mostly Cloudy
11:00 AM 26.6 °F 15.2 °F 19.4 °F 74% 29.65 in 6.2 mi NNW 13.8 mph - N/A Snow Light Snow Showers
12:00 PM 26.6 °F 13.8 °F 17.6 °F 69% 29.65 in 6.2 mi NNW 17.3 mph - N/A Snow Light Snow Showers
1:00 PM 28.4 °F 16.6 °F 19.4 °F 69% 29.65 in 6.2 mi NNW 16.1 mph - N/A Snow Light Snow Showers
2:00 PM 28.4 °F 16.6 °F 17.6 °F 64% 29.65 in 6.2 mi NNW 16.1 mph - N/A Snow Light Snow Showers
3:00 PM 28.4 °F 17.0 °F 15.8 °F 59% 29.68 in 6.2 mi North 15.0 mph - N/A   Mostly Cloudy
4:00 PM 26.6 °F 14.7 °F 15.8 °F 64% 29.68 in 6.2 mi North 15.0 mph - N/A   Partly Cloudy
5:00 PM 23.0 °F 11.1 °F 14.0 °F 68% 29.71 in 6.2 mi North 12.7 mph - N/A   Partly Cloudy
6:00 PM 17.6 °F 8.2 °F 10.4 °F 73% 29.74 in 6.2 mi NNW 6.9 mph - N/A   Partly Cloudy
7:00 PM 15.8 °F 7.2 °F 10.4 °F 79% 29.77 in 6.2 mi NNW 5.8 mph - N/A   Partly Cloudy
8:00 PM 15.8 °F 5.1 °F 10.4 °F 79% 29.80 in 6.2 mi NNW 8.1 mph - N/A   Partly Cloudy